Change the Weather History Date:

Saturday, November 19, 2011

  Actual Average Record
Temperature  
Mean Temperature 40 °F -  
Max Temperature 53 °F 51 °F 68 °F (1953)
Min Temperature 28 °F 36 °F 19 °F (2005)
Degree Days  
Heating Degree Days 24    
Moisture  
Dew Point 36 °F    
Average Humidity 71    
Maximum Humidity 92    
Minimum Humidity 48    
Precipitation  
Precipitation 0.00 in - - ()
Sea Level Pressure  
Sea Level Pressure 30.34 in    
Wind  
Wind Speed 8 mph (SW)    
Max Wind Speed 26 mph    
Max Gust Speed 36 mph    
Visibility 10 miles    
Events      
Averages and records for this station are not official NWS values.
T = Trace of Precipitation, MM = Missing Value Source: NWS Daily Summary

Daily Weather History Graph

Daily Weather History Graph

Search for Another Location

Airport or City:

Trip Planner

Search our weather history database for the weather conditions in past years. The results will help you decide how hot, cold, wet, or windy it might be!

Date:

Astronomy

Nov. 19, 2011 Rise Set
Actual Time 6:37 AM EST 4:20 PM EST
Civil Twilight 6:07 AM EST 4:50 PM EST
Nautical Twilight 5:33 AM EST 5:24 PM EST
Astronomical Twilight 5:00 AM EST 5:57 PM EST
Moon No Moon Rise 12:41 PM EST (11/19)
Length of Visible Light 10h 43m
Length of Day
9h 43m
Last Quarter, 38% of the Moon is Illuminated
Nov 19
Last Quarter
Nov 25
New
Dec 2
First Quarter
Dec 10
Full
Dec 17
Last Quarter

Hourly Weather History & Observations

Time (EST) Temp. Windchill Dew Point Humidity Pressure Visibility Wind Dir Wind Speed Gust Speed Precip Events Conditions
12:53 AM 28.0 °F - 26.1 °F 92% 30.40 in 10.0 mi Calm Calm - N/A   Clear
1:53 AM 28.0 °F - 26.1 °F 92% 30.41 in 10.0 mi Calm Calm - N/A   Clear
2:53 AM 28.9 °F - 26.1 °F 89% 30.40 in 10.0 mi Calm Calm - N/A   Clear
3:53 AM 32.0 °F 28.7 °F 25.0 °F 75% 30.39 in 10.0 mi WSW 3.5 mph - N/A   Clear
4:53 AM 32.0 °F - 26.1 °F 79% 30.40 in 10.0 mi Calm Calm - N/A   Clear
5:53 AM 37.0 °F 31.6 °F 30.0 °F 76% 30.41 in 10.0 mi WSW 6.9 mph - N/A   Clear
6:53 AM 39.2 °F 34.2 °F 30.2 °F 70% 30.40 in 10.0 mi WSW 6.9 mph - N/A   Clear
7:53 AM 43.0 °F 38.8 °F 34.0 °F 71% 30.41 in 10.0 mi SW 6.9 mph - N/A   Clear
8:53 AM 46.9 °F - 35.1 °F 63% 30.41 in 10.0 mi WSW 12.7 mph 18.4 mph N/A   Clear
9:53 AM 48.9 °F - 35.1 °F 59% 30.41 in 10.0 mi SW 15.0 mph 24.2 mph N/A   Clear
10:53 AM 51.1 °F - 32.0 °F 48% 30.39 in 10.0 mi SW 20.7 mph 35.7 mph N/A   Clear
11:53 AM 51.1 °F - 35.1 °F 54% 30.36 in 10.0 mi WSW 18.4 mph 28.8 mph N/A   Clear
12:53 PM 53.1 °F - 35.1 °F 50% 30.32 in 10.0 mi SSW 26.5 mph 35.7 mph N/A   Clear
1:53 PM 53.1 °F - 35.1 °F 50% 30.31 in 10.0 mi SW 24.2 mph 31.1 mph N/A   Clear
2:53 PM 51.1 °F - 35.1 °F 54% 30.31 in 10.0 mi SW 17.3 mph 29.9 mph N/A   Clear
3:53 PM 50.0 °F - 37.4 °F 62% 30.32 in 10.0 mi SW 11.5 mph 20.7 mph N/A   Clear
4:53 PM 48.9 °F - 39.0 °F 69% 30.32 in 10.0 mi SW 10.4 mph - N/A   Clear
5:53 PM 48.9 °F - 39.9 °F 71% 30.32 in 10.0 mi SSW 11.5 mph - N/A   Clear
6:53 PM 48.9 °F - 39.9 °F 71% 30.30 in 10.0 mi SSW 11.5 mph - N/A   Clear
7:53 PM 50.0 °F - 42.8 °F 76% 30.29 in 10.0 mi SW 13.8 mph 20.7 mph N/A   Clear
8:53 PM 51.1 °F - 44.1 °F 77% 30.29 in 10.0 mi SW 9.2 mph - N/A   Partly Cloudy
9:53 PM 53.1 °F - 46.0 °F 77% 30.27 in 10.0 mi SW 16.1 mph 23.0 mph N/A   Scattered Clouds
10:00 PM 53.6 °F - 46.4 °F 77% 30.27 in 10.0 mi SW 16.1 mph 25.3 mph N/A   Mostly Cloudy
10:50 PM 53.6 °F - 46.4 °F 77% 30.26 in 10.0 mi SW 15.0 mph - N/A   Mostly Cloudy
10:53 PM 53.1 °F - 46.9 °F 80% 30.25 in 10.0 mi SSW 13.8 mph 21.9 mph N/A   Mostly Cloudy
11:53 PM 53.6 °F - 46.4 °F 77% 30.25 in 10.0 mi SSW 12.7 mph - N/A   Scattered Clouds